When you browse on this site, cookies collect data to enhance your experience and personalize the content and advertising you see.
Visit our Privacy Policy to learn more. By continuing to use the site, you agree to this use of cookies and data.
  • In Hungary
  • List of Countries
  • For 7 days
  • Water Temperature
  • Satellite Maps
  • Weather Map
  • News
  • Weather Widgets
  • user-avatar
    Login

    Hourly Weather Puerto Real

    Today, 16 January, Wednesday

    Time Temperature Precipitation Wind Pressure Humidity
    00:00 +12°C° 0 mm 1 mps 765 mmHg 83%
    01:00 +12°C° 0 mm 1 mps 765 mmHg 83%
    02:00 +11°C° 0 mm 1 mps 765 mmHg 83%
    03:00 +11°C° 0 mm 1 mps 765 mmHg 83%
    04:00 +11°C° 0 mm 1 mps 765 mmHg 82%
    05:00 +11°C° 0 mm 1 mps 764 mmHg 82%
    06:00 +10°C° 0 mm 2 mps 764 mmHg 82%
    07:00 +12°C° 0 mm 2 mps 764 mmHg 80%
    08:00 +12°C° 0 mm 2 mps 764 mmHg 79%
    09:00 +13°C° 0 mm 2 mps 765 mmHg 77%
    10:00 +14°C° 0.1 mm 2 mps 764 mmHg 72%
    11:00 +14°C° 0.1 mm 3 mps 764 mmHg 67%
    12:00 +16°C° 0.1 mm 3 mps 764 mmHg 63%
    13:00 +16°C° 0.1 mm 3 mps 764 mmHg 62%
    14:00 +16°C° 0.1 mm 3 mps 764 mmHg 62%
    15:00 +16°C° 0.1 mm 3 mps 763 mmHg 62%
    16:00 +14°C° 0 mm 3 mps 763 mmHg 65%
    17:00 +14°C° 0 mm 2 mps 763 mmHg 68%
    18:00 +13°C° 0 mm 2 mps 763 mmHg 71%
    19:00 +13°C° 0 mm 1 mps 763 mmHg 73%
    20:00 +12°C° 0 mm 1 mps 763 mmHg 75%
    21:00 +12°C° 0 mm 1 mps 763 mmHg 77%
    22:00 +12°C° 0 mm 1 mps 763 mmHg 78%
    23:00 +11°C° 0 mm 1 mps 763 mmHg 80%

    Tomorrow, 17 January, Thursday

    Time Temperature Precipitation Wind Pressure Humidity
    00:00 +11°C° 0 mm 1 mps 763 mmHg 81%
    01:00 +11°C° 0 mm 1 mps 763 mmHg 82%
    02:00 +11°C° 0 mm 1 mps 763 mmHg 83%
    03:00 +10°C° 0 mm 2 mps 763 mmHg 85%
    04:00 +10°C° 0 mm 2 mps 763 mmHg 85%
    05:00 +9°C° 0 mm 2 mps 763 mmHg 85%
    06:00 +9°C° 0 mm 2 mps 763 mmHg 85%
    07:00 +10°C° 0 mm 2 mps 763 mmHg 83%
    08:00 +12°C° 0 mm 2 mps 763 mmHg 82%
    09:00 +12°C° 0 mm 2 mps 763 mmHg 80%
    10:00 +13°C° 0.1 mm 2 mps 764 mmHg 76%
    11:00 +14°C° 0.1 mm 2 mps 764 mmHg 72%
    12:00 +16°C° 0.1 mm 1 mps 764 mmHg 68%
    13:00 +16°C° 0.1 mm 1 mps 763 mmHg 66%
    14:00 +16°C° 0.1 mm 1 mps 763 mmHg 65%
    15:00 +16°C° 0.1 mm 1 mps 762 mmHg 64%
    16:00 +15°C° 0 mm 2 mps 763 mmHg 67%
    17:00 +14°C° 0 mm 2 mps 763 mmHg 71%
    18:00 +13°C° 0 mm 2 mps 763 mmHg 74%
    19:00 +13°C° 0 mm 2 mps 763 mmHg 74%
    20:00 +12°C° 0 mm 2 mps 764 mmHg 75%
    21:00 +12°C° 0 mm 1 mps 764 mmHg 75%
    22:00 +12°C° 0 mm 2 mps 764 mmHg 75%
    23:00 +10°C° 0 mm 2 mps 764 mmHg 75%

    Day after tomorrow, 18 January, Friday

    Time Temperature Precipitation Wind Pressure Humidity
    00:00 +10°C° 0 mm 2 mps 764 mmHg 75%
    01:00 +10°C° 0 mm 2 mps 764 mmHg 76%
    02:00 +9°C° 0 mm 2 mps 764 mmHg 76%
    03:00 +9°C° 0 mm 2 mps 764 mmHg 77%
    04:00 +9°C° 0 mm 2 mps 764 mmHg 78%
    05:00 +8°C° 0 mm 2 mps 764 mmHg 79%
    06:00 +8°C° 0 mm 2 mps 764 mmHg 80%
    07:00 +8°C° 0 mm 2 mps 764 mmHg 78%
    08:00 +9°C° 0 mm 2 mps 765 mmHg 76%
    09:00 +9°C° 0 mm 2 mps 765 mmHg 74%
    10:00 +12°C° 0 mm 2 mps 765 mmHg 68%
    11:00 +13°C° 0 mm 2 mps 765 mmHg 63%
    12:00 +15°C° 0 mm 1 mps 765 mmHg 57%
    13:00 +15°C° 0 mm 2 mps 765 mmHg 57%
    14:00 +15°C° 0 mm 2 mps 764 mmHg 56%
    15:00 +16°C° 0 mm 3 mps 764 mmHg 56%
    16:00 +14°C° 0 mm 3 mps 764 mmHg 61%
    17:00 +13°C° 0 mm 3 mps 764 mmHg 66%
    18:00 +12°C° 0 mm 3 mps 765 mmHg 72%
    19:00 +11°C° 0 mm 3 mps 765 mmHg 73%
    20:00 +12°C° 0 mm 2 mps 766 mmHg 73%
    21:00 +12°C° 0 mm 2 mps 766 mmHg 74%
    22:00 +12°C° 0 mm 2 mps 766 mmHg 74%
    23:00 +11°C° 0 mm 3 mps 766 mmHg 74%

    19 January, Saturday

    Time Temperature Precipitation Wind Pressure Humidity
    00:00 +10°C° 0 mm 3 mps 766 mmHg 74%
    01:00 +10°C° 0 mm 3 mps 766 mmHg 75%
    02:00 +10°C° 0 mm 3 mps 766 mmHg 76%
    03:00 +10°C° 0 mm 2 mps 766 mmHg 77%
    04:00 +10°C° 0 mm 2 mps 766 mmHg 77%
    05:00 +10°C° 0 mm 2 mps 766 mmHg 77%
    06:00 +11°C° 0 mm 1 mps 765 mmHg 77%
    07:00 +11°C° 0 mm 1 mps 766 mmHg 77%
    08:00 +12°C° 0 mm 1 mps 766 mmHg 77%
    09:00 +12°C° 0 mm 1 mps 766 mmHg 76%
    10:00 +13°C° 0.2 mm 2 mps 766 mmHg 79%
    11:00 +12°C° 0.2 mm 3 mps 766 mmHg 82%
    12:00 +12°C° 0.2 mm 4 mps 766 mmHg 84%
    13:00 +13°C° 0.4 mm 4 mps 765 mmHg 84%
    14:00 +14°C° 0.4 mm 5 mps 765 mmHg 84%
    15:00 +15°C° 0.4 mm 6 mps 764 mmHg 83%
    16:00 +15°C° 0.5 mm 6 mps 764 mmHg 85%
    17:00 +15°C° 0.5 mm 6 mps 764 mmHg 86%
    18:00 +15°C° 0.5 mm 5 mps 763 mmHg 88%
    19:00 +15°C° 0.8 mm 6 mps 763 mmHg 87%
    20:00 +15°C° 0.8 mm 7 mps 763 mmHg 87%
    21:00 +15°C° 0.8 mm 7 mps 763 mmHg 86%
    22:00 +15°C° 4.1 mm 9 mps 763 mmHg 87%
    23:00 +14°C° 4.1 mm 10 mps 762 mmHg 88%

    20 January, Sunday

    Time Temperature Precipitation Wind Pressure Humidity
    00:00 +16°C° 4.1 mm 11 mps 762 mmHg 89%
    01:00 +14°C° 0.9 mm 10 mps 762 mmHg 88%
    02:00 +15°C° 0.9 mm 8 mps 761 mmHg 88%
    03:00 +14°C° 0.9 mm 7 mps 761 mmHg 87%
    04:00 +14°C° 0 mm 7 mps 761 mmHg 87%
    05:00 +14°C° 0 mm 7 mps 761 mmHg 88%
    06:00 +12°C° 0 mm 7 mps 761 mmHg 88%
    07:00 +12°C° 0 mm 7 mps 762 mmHg 84%
    08:00 +12°C° 0 mm 7 mps 763 mmHg 81%
    09:00 +12°C° 0 mm 7 mps 763 mmHg 78%
    10:00 +12°C° 0 mm 7 mps 763 mmHg 75%
    11:00 +14°C° 0 mm 7 mps 764 mmHg 72%
    12:00 +14°C° 0 mm 7 mps 764 mmHg 69%
    13:00 +14°C° 0 mm 7 mps 764 mmHg 66%
    14:00 +15°C° 0 mm 7 mps 763 mmHg 64%
    15:00 +15°C° 0 mm 7 mps 763 mmHg 61%
    16:00 +14°C° 0 mm 6 mps 764 mmHg 64%
    17:00 +14°C° 0 mm 6 mps 764 mmHg 66%
    18:00 +13°C° 0 mm 5 mps 764 mmHg 68%
    19:00 +12°C° 0 mm 5 mps 765 mmHg 69%
    20:00 +12°C° 0 mm 5 mps 765 mmHg 70%
    21:00 +12°C° 0 mm 4 mps 766 mmHg 71%
    22:00 +11°C° 0 mm 4 mps 766 mmHg 72%
    23:00 +11°C° 0 mm 4 mps 766 mmHg 73%

    21 January, Monday

    Time Temperature Precipitation Wind Pressure Humidity
    00:00 +11°C° 0 mm 4 mps 766 mmHg 73%
    01:00 +10°C° 0 mm 3 mps 766 mmHg 74%
    02:00 +10°C° 0 mm 3 mps 766 mmHg 74%
    03:00 +9°C° 0 mm 3 mps 766 mmHg 75%
    04:00 +9°C° 0 mm 3 mps 766 mmHg 76%
    05:00 +9°C° 0 mm 3 mps 766 mmHg 77%
    06:00 +8°C° 0 mm 3 mps 766 mmHg 78%
    07:00 +9°C° 0 mm 3 mps 766 mmHg 77%
    08:00 +9°C° 0 mm 3 mps 767 mmHg 76%
    09:00 +9°C° 0 mm 3 mps 767 mmHg 75%
    10:00 +10°C° 0 mm 3 mps 767 mmHg 70%
    11:00 +12°C° 0 mm 3 mps 767 mmHg 65%
    12:00 +13°C° 0 mm 3 mps 767 mmHg 60%
    13:00 +13°C° 0 mm 3 mps 767 mmHg 59%
    14:00 +14°C° 0 mm 4 mps 766 mmHg 57%
    15:00 +14°C° 0 mm 4 mps 766 mmHg 56%
    16:00 +13°C° 0 mm 3 mps 766 mmHg 58%
    17:00 +12°C° 0 mm 3 mps 766 mmHg 60%
    18:00 +13°C° 0 mm 2 mps 766 mmHg 63%
    19:00 +11°C° 0 mm 3 mps 767 mmHg 64%
    20:00 +11°C° 0 mm 3 mps 767 mmHg 66%
    21:00 +11°C° 0 mm 3 mps 767 mmHg 68%
    22:00 +10°C° 0 mm 3 mps 767 mmHg 69%
    23:00 +10°C° 0 mm 3 mps 767 mmHg 70%
    Show more